Zurück zum Katalog

HULIANWANG DIGUI-38

AktivKommunikationPO
NORAD 64959·PAYLOAD·🇨🇳 China

Gestartet Jul 27, 2025 von Taiyuan Satellite Launch Center

Loading…

Nächste Überflüge (nächste 24 Stunden)

TLE

AktuellSource: Space-Track

Epoche: Sep 14, 2026, 21:47 UTC

1 64959U 25159D   26257.90827246 -.00000075  00000-0 -20983-3 0  9994
2 64959  86.4914 252.1700 0001994  90.0964 270.0399 13.24404075 55005

Verfolge HULIANWANG DIGUI-38 in Echtzeit mit AllMySat

Download on the App Store